Regional Weather Roundup
Issued by NWS

Home | Current Version | Previous Version | Text Only | Print | Product List | Glossary Off
Versions: 1 2 3 4 5 6 7 8 9 10 11 12 13 14 15 16 17 18 19 20 21 22 23 24 25 26 27 28 29 30 31 32 33 34 35 36 37 38 39 40 41 42 43 44 45 46 47 48 49 50

000
ASUS45 KSLC 051210
RWRUT

UTAH REGIONAL WEATHER ROUNDUP
NATIONAL WEATHER SERVICE SALT LAKE CITY UT
600 AM MDT SAT SEP 05 2015

UTZ001>011-023>025-051300-

NORTHERN UTAH

CITY           SKY/WX    TMP DP  RH WIND       PRES   REMARKS
BRIGHAM CITY   MOCLDY    70  41  35 N6        29.84R
HILL AFB       PTCLDY    70  42  35 S22G31    29.85S
LOGAN          MOCLDY    55  40  56 N17       29.85R
OGDEN          PTCLDY    71  42  35 S20G31    29.82S
PROVO AIRPORT  PTCLDY    63  39  42 SE10      29.92R
SALT LAKE CITY MOCLDY    74  40  29 S24G33    29.84R
VERNAL         PTCLDY    52  49  89 W5        30.02S
WENDOVER       CLEAR     63  27  25 N8        29.85R
HEBER CITY     MOCLDY    66  36  32 S12G18    29.95S
WEST JORDAN    PTCLDY    70  41  35 SE17      29.89R

$$

UTZ012>022-026-027-051300-

SOUTHERN/CENTRAL UTAH

CITY           SKY/WX    TMP DP  RH WIND       PRES   REMARKS
BLANDING       CLOUDY    56  54  91 N6        30.20S
BRYCE CANYON   MOCLDY    55  44  66 SE8       30.17R
CEDAR CITY     PTCLDY    61  41  47 CALM      30.00R
DELTA          CLEAR     62  41  46 S10       29.93S
HANKSVILLE     CLEAR     64  50  59 SE5       30.00S
MILFORD        CLEAR     62  40  44 S17       29.94S
MOAB/CYNLANDS  CLEAR     63  51  65 NE10      30.00S
PRICE          CLEAR     57  46  66 E10       30.04S
ST GEORGE      PTSUNNY   73  50  43 SE9       29.90R
KANAB          CLEAR     55  52  88 CALM      30.10R

$$

REGIONAL REPORTS     COLORADO/ARIZONA

CITY           SKY/WX    TMP DP  RH WIND       PRES   REMARKS
CRAIG, CO      CLOUDY    53  47  79 CALM      30.10R
GRAND JUNCTION MOCLDY    57  53  86 SE16      30.06F
RIFLE          MOCLDY    56  53  90 CALM      30.13R
MONTROSE       MOCLDY    54  53  97 SW5       30.16F
CORTEZ         CLOUDY    56  54  93 CALM      30.14S
PAGE, AZ       CLEAR     68  51  54 S3        29.99S
GRAND CANYON   PTCLDY    54  51  90 S6        30.16F
KINGMAN        CLEAR     67  55  65 SE8       29.95F
FLAGSTAFF      MOCLDY    54  53  97 W3        30.19F

$$

REGIONAL REPORTS    NEVADA/IDAHO/WYOMING

CITY           SKY/WX    TMP DP  RH WIND       PRES   REMARKS
LAS VEGAS, NV  CLEAR     76  36  23 S7        29.80R
ELY            CLEAR     59  17  19 S13G29    29.95S
ELKO           CLOUDY    48  31  51 S7        29.96R
POCATELLO, ID  CLEAR     50  36  58 SW15      29.94R
BURLEY         CLOUDY    48  38  68 W9        29.94R
EVANSTON, WY   LGT RAIN  57  40  52 SW16G28   30.01R
ROCK SPRINGS   CLEAR     58  45  62 S22G32    30.03F
KEMMERER       PTCLDY    52  34  50 S7        30.03S

$$


USA.gov is the U.S. government's official web portal to all federal, state and local government web resources and services.